sat.trackr.live / text

‹ back to catalog

ONEWEB-0389

NORAD 50469 · 2021-132A

PAYLOAD ACTIVE UNKNOWN

§ Identity

Operator
Country
UK
Launch date
2021-12-27
Launch site
TYMSC
Launch vehicle
Mass (kg)
RCS (m²)

Purposes: comms

External: N2YO · Heavens-Above · Gunter

§ Orbital elements

Epoch: 2026-05-25T02:44:19.840992Z

Period
109.29 min
Inclination
87.9154°
Eccentricity
0.0002192
Mean motion
13.17651105 rev/d
Perigee alt
1,192.0 km
Apogee alt
1,195.4 km
Semi-major
7,571.8 km
B*
4.1465e-5
RAAN
10.4569°
Arg perigee
89.0951°
Mean anomaly
271.0432°
Rev number
21,504

§ Raw data

ONEWEB-03891 50469U 21132A   26145.11411853  .00000029  00000+0  41465-4 0  99992 50469  87.9154  10.4569 0002192  89.0951 271.0432 13.17651105215042

JSON: /api/v1/satellites/50469 · /tle

For live sub-satellite position, see the globe view (requires WebGL).

§ Visibility from observer

Set your observer location to see the next 7 days of passes ≥ 10°. The values pass through the URL so the page stays shareable.

No JS? Fill the form by hand. The geolocation button needs JavaScript.